Weather History for Lebanon, NH

Change the Weather History Date:

Wednesday, February 13, 2013

  Actual Average Record
Temperature  
Mean Temperature 29 °F -  
Max Temperature 37 °F 29 °F 54 °F (1937)
Min Temperature 21 °F 7 °F -26 °F (1967)
Degree Days  
Heating Degree Days 36    
Moisture  
Dew Point 18 °F    
Average Humidity 65    
Maximum Humidity 82    
Minimum Humidity 44    
Precipitation  
Precipitation 0.00 in - - ()
Sea Level Pressure  
Sea Level Pressure 29.80 in    
Wind  
Wind Speed 2 mph (West)    
Max Wind Speed 7 mph    
Max Gust Speed -    
Visibility 10 miles    
Events      
Averages and records for this station are not official NWS values.
T = Trace of Precipitation, MM = Missing Value Source: NWS Daily Summary

Daily Weather History Graph

Daily Weather History Graph

Search for Another Location

Airport:

Trip Planner

Search our weather history database for the weather conditions in past years. The results will help you decide how hot, cold, wet, or windy it might be!

Date:

Astronomy

Feb. 13, 2013 Rise Set
Actual Time 6:50 AM EST 5:17 PM EST
Civil Twilight 6:20 AM EST 5:46 PM EST
Nautical Twilight 5:47 AM EST 6:20 PM EST
Astronomical Twilight 5:13 AM EST 6:53 PM EST
Moon 8:09 AM EST (2/13) 9:26 PM EST (2/13)
Length of Visible Light 11h 26m
Length of Day
10h 26m
Waxing Crescent, 13% of the Moon is Illuminated
Feb 13
Waxing Crescent
Feb 17
First Quarter
Feb 25
Full
Mar 4
Last Quarter
Mar 11
New

Hourly Weather History & Observations

Time (EST) Temp. Windchill Dew Point Humidity Pressure Visibility Wind Dir Wind Speed Gust Speed Precip Events Conditions
12:53 AM 33.1 °F 30.0 °F 21.0 °F 61% 29.82 in 10.0 mi West 3.5 mph - N/A   Overcast
1:53 AM 30.0 °F - 19.9 °F 66% 29.82 in 10.0 mi Calm Calm - N/A   Scattered Clouds
2:53 AM 25.0 °F 20.7 °F 18.0 °F 75% 29.83 in 10.0 mi SSE 3.5 mph - N/A   Clear
3:53 AM 23.0 °F - 16.0 °F 74% 29.83 in 10.0 mi Calm Calm - N/A   Clear
4:53 AM 23.0 °F - 17.1 °F 78% 29.85 in 10.0 mi Calm Calm - N/A   Mostly Cloudy
5:53 AM 23.0 °F - 16.0 °F 74% 29.83 in 10.0 mi Calm Calm - N/A   Clear
6:53 AM 21.9 °F 14.5 °F 17.1 °F 82% 29.84 in 10.0 mi NNE 5.8 mph - N/A   Clear
7:53 AM 27.0 °F - 18.0 °F 69% 29.85 in 10.0 mi Calm Calm - N/A   Overcast
8:27 AM 24.8 °F - 17.6 °F 74% 29.82 in 10.0 mi Calm Calm - N/A   Mostly Cloudy
8:38 AM 26.6 °F - 17.6 °F 69% 29.82 in 10.0 mi Calm Calm - N/A   Partly Cloudy
8:53 AM 26.1 °F - 19.0 °F 75% 29.85 in 10.0 mi Calm Calm - N/A   Scattered Clouds
9:53 AM 34.0 °F 31.0 °F 19.9 °F 56% 29.84 in 10.0 mi NNE 3.5 mph - N/A   Overcast
10:53 AM 36.0 °F 31.1 °F 19.9 °F 52% 29.82 in 10.0 mi NW 5.8 mph - N/A   Overcast
11:53 AM 36.0 °F - 18.0 °F 48% 29.80 in 10.0 mi Calm Calm - N/A   Overcast
12:53 PM 37.0 °F 33.3 °F 19.0 °F 48% 29.79 in 10.0 mi NNW 4.6 mph - N/A   Overcast
1:53 PM 37.0 °F 33.3 °F 17.1 °F 44% 29.78 in 10.0 mi SW 4.6 mph - N/A   Overcast
2:53 PM 37.0 °F 32.4 °F 18.0 °F 46% 29.77 in 10.0 mi West 5.8 mph - N/A   Mostly Cloudy
3:53 PM 37.0 °F 31.6 °F 17.1 °F 44% 29.76 in 10.0 mi WSW 6.9 mph - N/A   Overcast
4:53 PM 36.0 °F 31.1 °F 18.0 °F 48% 29.77 in 10.0 mi SW 5.8 mph - N/A   Overcast
5:53 PM 33.1 °F - 21.0 °F 61% 29.76 in 10.0 mi Calm Calm - N/A   Overcast
6:53 PM 28.0 °F - 19.9 °F 72% 29.75 in 10.0 mi Calm Calm - N/A   Partly Cloudy
7:53 PM 23.0 °F - 17.1 °F 78% 29.77 in 10.0 mi Calm Calm - N/A   Partly Cloudy
8:53 PM 21.0 °F - 15.1 °F 78% 29.77 in 10.0 mi Calm Calm - N/A   Clear
9:53 PM 21.9 °F - 16.0 °F 78% 29.77 in 10.0 mi Calm Calm - N/A   Clear
10:53 PM 24.1 °F - 18.0 °F 77% 29.76 in 10.0 mi Calm Calm - N/A   Clear
11:53 PM 25.0 °F - 18.0 °F 75% 29.75 in 10.0 mi Calm Calm - N/A   Clear